Tracking 28096 objects as of 28-Sep-2023
HD Live streaming from Space Station
objects crossing your sky now

COSMOS 1538

Track COSMOS 1538 now!
10-day predictions
COSMOS 1538 is classified as:


NORAD ID: 14759
Int'l Code: 1984-019A
Perigee: 770.4 km
Apogee: 801.5 km
Inclination: 74.0 °
Period: 100.4 minutes
Semi major axis: 7156 km
RCS: 2.0376 m2 (large)
Launch date: February 21, 1984
Source: Commonwealth of Independent States (former USSR) (CIS)
Launch site: PLESETSK MISSILE AND SPACE COMPLEX (PKMTR)
Your satellite tracking list
Your tracking list is empty




NASA's NSSDC Master Catalog

Two Line Element Set (TLE):
1 14759U 84019A   23270.49353225  .00000253  00000-0  10004-3 0  9993
2 14759  74.0386 297.8992 0021747 326.7909  33.1877 14.33881742 70725
Source of the keplerian elements: AFSPC